Stündliche Wetter Holokhvasty

Heute, 25 Juni, Freitag

Zeit Temperatur Niederschläge Wind Luftdruck Luftfeuchtigkeit
00:00 +24°C° 0 mm 1 m/S 732 mmHg 84%
01:00 +23°C° 0 mm 1 m/S 732 mmHg 86%
02:00 +23°C° 0 mm 1 m/S 732 mmHg 88%
03:00 +23°C° 0 mm 1 m/S 731 mmHg 89%
04:00 +23°C° 0 mm 2 m/S 731 mmHg 90%
05:00 +23°C° 0 mm 2 m/S 731 mmHg 90%
06:00 +24°C° 0 mm 2 m/S 731 mmHg 85%
07:00 +26°C° 0 mm 2 m/S 731 mmHg 80%
08:00 +28°C° 0 mm 2 m/S 731 mmHg 75%
09:00 +29°C° 0 mm 3 m/S 731 mmHg 69%
10:00 +30°C° 0 mm 4 m/S 732 mmHg 64%
11:00 +32°C° 0 mm 5 m/S 732 mmHg 58%
12:00 +32°C° 0 mm 5 m/S 732 mmHg 56%
13:00 +32°C° 0 mm 5 m/S 732 mmHg 54%
14:00 +33°C° 0 mm 5 m/S 731 mmHg 52%
15:00 +32°C° 0 mm 5 m/S 731 mmHg 54%
16:00 +32°C° 0 mm 5 m/S 730 mmHg 57%
17:00 +30°C° 0 mm 5 m/S 730 mmHg 59%
18:00 +28°C° 0.2 mm 4 m/S 730 mmHg 68%
19:00 +25°C° 0.2 mm 3 m/S 731 mmHg 77%
20:00 +22°C° 0.2 mm 3 m/S 731 mmHg 86%
21:00 +21°C° 0 mm 2 m/S 731 mmHg 87%
22:00 +20°C° 0 mm 2 m/S 731 mmHg 88%
23:00 +19°C° 0 mm 2 m/S 731 mmHg 89%

Morgen, 26 Juni, Samstag

Zeit Temperatur Niederschläge Wind Luftdruck Luftfeuchtigkeit
00:00 +19°C° 0.4 mm 2 m/S 731 mmHg 90%
01:00 +18°C° 0.4 mm 2 m/S 731 mmHg 92%
02:00 +18°C° 0.4 mm 2 m/S 731 mmHg 93%
03:00 +18°C° 0.3 mm 2 m/S 731 mmHg 93%
04:00 +18°C° 0.3 mm 2 m/S 731 mmHg 93%
05:00 +17°C° 0.3 mm 2 m/S 731 mmHg 93%
06:00 +19°C° 0.5 mm 3 m/S 731 mmHg 90%
07:00 +20°C° 0.5 mm 3 m/S 731 mmHg 86%
08:00 +21°C° 0.5 mm 3 m/S 732 mmHg 83%
09:00 +22°C° 0 mm 3 m/S 732 mmHg 79%
10:00 +24°C° 0 mm 3 m/S 732 mmHg 76%
11:00 +25°C° 0 mm 4 m/S 732 mmHg 72%
12:00 +25°C° 0 mm 4 m/S 732 mmHg 73%
13:00 +25°C° 0 mm 4 m/S 732 mmHg 73%
14:00 +25°C° 0 mm 4 m/S 732 mmHg 74%
15:00 +25°C° 0 mm 4 m/S 731 mmHg 74%
16:00 +25°C° 0 mm 4 m/S 731 mmHg 74%
17:00 +25°C° 0 mm 4 m/S 731 mmHg 75%
18:00 +24°C° 0.1 mm 3 m/S 731 mmHg 79%
19:00 +22°C° 0.1 mm 3 m/S 731 mmHg 84%
20:00 +21°C° 0.1 mm 3 m/S 731 mmHg 89%
21:00 +20°C° 0 mm 3 m/S 731 mmHg 91%
22:00 +20°C° 0 mm 3 m/S 731 mmHg 94%
23:00 +19°C° 0 mm 4 m/S 731 mmHg 96%

übermorgen, 27 Juni, Sonntag

Zeit Temperatur Niederschläge Wind Luftdruck Luftfeuchtigkeit
00:00 +19°C° 0.2 mm 4 m/S 731 mmHg 97%
01:00 +18°C° 0.2 mm 3 m/S 731 mmHg 97%
02:00 +18°C° 0.2 mm 3 m/S 731 mmHg 97%
03:00 +18°C° 0 mm 4 m/S 731 mmHg 97%
04:00 +17°C° 0 mm 4 m/S 731 mmHg 96%
05:00 +17°C° 0 mm 4 m/S 731 mmHg 96%
06:00 +18°C° 0 mm 4 m/S 732 mmHg 92%
07:00 +19°C° 0 mm 5 m/S 732 mmHg 88%
08:00 +20°C° 0 mm 5 m/S 732 mmHg 84%
09:00 +21°C° 0 mm 5 m/S 732 mmHg 79%
10:00 +22°C° 0 mm 5 m/S 732 mmHg 73%
11:00 +25°C° 0 mm 5 m/S 732 mmHg 67%
12:00 +25°C° 0 mm 5 m/S 732 mmHg 67%
13:00 +25°C° 0 mm 5 m/S 732 mmHg 67%
14:00 +25°C° 0 mm 4 m/S 732 mmHg 67%
15:00 +25°C° 0 mm 4 m/S 732 mmHg 68%
16:00 +25°C° 0 mm 4 m/S 732 mmHg 69%
17:00 +25°C° 0 mm 4 m/S 732 mmHg 69%
18:00 +23°C° 0.1 mm 4 m/S 732 mmHg 75%
19:00 +21°C° 0.1 mm 3 m/S 732 mmHg 80%
20:00 +20°C° 0.1 mm 3 m/S 732 mmHg 85%
21:00 +19°C° 0 mm 3 m/S 732 mmHg 87%
22:00 +18°C° 0 mm 3 m/S 732 mmHg 88%
23:00 +17°C° 0 mm 3 m/S 732 mmHg 90%

28 Juni, Montag

Zeit Temperatur Niederschläge Wind Luftdruck Luftfeuchtigkeit
00:00 +17°C° 0 mm 3 m/S 733 mmHg 89%
01:00 +17°C° 0 mm 3 m/S 733 mmHg 89%
02:00 +16°C° 0 mm 3 m/S 733 mmHg 89%
03:00 +16°C° 0 mm 3 m/S 733 mmHg 90%
04:00 +16°C° 0 mm 3 m/S 733 mmHg 90%
05:00 +16°C° 0 mm 3 m/S 733 mmHg 91%
06:00 +18°C° 0 mm 3 m/S 733 mmHg 85%
07:00 +19°C° 0 mm 3 m/S 733 mmHg 79%
08:00 +21°C° 0 mm 3 m/S 734 mmHg 72%
09:00 +22°C° 0 mm 4 m/S 734 mmHg 67%
10:00 +23°C° 0 mm 4 m/S 734 mmHg 61%
11:00 +25°C° 0 mm 4 m/S 734 mmHg 55%
12:00 +25°C° 0 mm 4 m/S 734 mmHg 55%
13:00 +26°C° 0 mm 4 m/S 734 mmHg 54%
14:00 +26°C° 0 mm 4 m/S 733 mmHg 53%
15:00 +25°C° 0 mm 4 m/S 733 mmHg 58%
16:00 +25°C° 0 mm 3 m/S 733 mmHg 62%
17:00 +24°C° 0 mm 3 m/S 733 mmHg 67%
18:00 +22°C° 0 mm 3 m/S 733 mmHg 70%
19:00 +21°C° 0 mm 2 m/S 733 mmHg 74%
20:00 +20°C° 0 mm 2 m/S 733 mmHg 78%
21:00 +19°C° 0 mm 2 m/S 733 mmHg 79%
22:00 +18°C° 0 mm 2 m/S 733 mmHg 81%
23:00 +17°C° 0 mm 2 m/S 733 mmHg 83%

29 Juni, Dienstag

Zeit Temperatur Niederschläge Wind Luftdruck Luftfeuchtigkeit
00:00 +17°C° 0 mm 2 m/S 733 mmHg 84%
01:00 +16°C° 0 mm 2 m/S 732 mmHg 86%
02:00 +16°C° 0 mm 2 m/S 732 mmHg 88%
03:00 +16°C° 0 mm 2 m/S 732 mmHg 88%
04:00 +16°C° 0 mm 2 m/S 732 mmHg 88%
05:00 +16°C° 0 mm 1 m/S 732 mmHg 88%
06:00 +19°C° 0 mm 1 m/S 732 mmHg 80%
07:00 +21°C° 0 mm 1 m/S 732 mmHg 73%
08:00 +23°C° 0 mm 1 m/S 733 mmHg 66%
09:00 +24°C° 0 mm 1 m/S 732 mmHg 61%
10:00 +25°C° 0 mm 2 m/S 732 mmHg 57%
11:00 +26°C° 0 mm 2 m/S 732 mmHg 52%
12:00 +27°C° 0 mm 2 m/S 732 mmHg 51%
13:00 +27°C° 0 mm 2 m/S 732 mmHg 50%
14:00 +27°C° 0 mm 3 m/S 732 mmHg 49%
15:00 +27°C° 0 mm 2 m/S 731 mmHg 51%
16:00 +27°C° 0 mm 2 m/S 731 mmHg 53%
17:00 +27°C° 0 mm 2 m/S 731 mmHg 55%
18:00 +25°C° 0 mm 2 m/S 731 mmHg 61%
19:00 +24°C° 0 mm 1 m/S 731 mmHg 66%
20:00 +22°C° 0 mm 1 m/S 731 mmHg 72%
21:00 +21°C° 0 mm 1 m/S 730 mmHg 74%
22:00 +20°C° 0 mm 1 m/S 730 mmHg 75%
23:00 +20°C° 0 mm 1 m/S 730 mmHg 77%

30 Juni, Mittwoch

Zeit Temperatur Niederschläge Wind Luftdruck Luftfeuchtigkeit
00:00 +19°C° 0 mm 1 m/S 730 mmHg 79%
01:00 +19°C° 0 mm 1 m/S 730 mmHg 81%
02:00 +19°C° 0 mm 1 m/S 729 mmHg 83%
03:00 +19°C° 0 mm 1 m/S 729 mmHg 84%
04:00 +19°C° 0 mm 1 m/S 729 mmHg 85%
05:00 +18°C° 0 mm 2 m/S 729 mmHg 86%
06:00 +19°C° 0 mm 2 m/S 729 mmHg 82%
07:00 +21°C° 0 mm 2 m/S 729 mmHg 78%
08:00 +24°C° 0 mm 3 m/S 729 mmHg 74%
09:00 +25°C° 0 mm 3 m/S 729 mmHg 70%
10:00 +27°C° 0 mm 3 m/S 729 mmHg 66%
11:00 +28°C° 0 mm 3 m/S 728 mmHg 62%
12:00 +29°C° 0 mm 3 m/S 728 mmHg 59%
13:00 +30°C° 0 mm 3 m/S 728 mmHg 56%
14:00 +31°C° 0 mm 3 m/S 728 mmHg 53%
15:00 +31°C° 0 mm 3 m/S 728 mmHg 54%
16:00 +31°C° 0 mm 3 m/S 727 mmHg 56%
17:00 +31°C° 0 mm 2 m/S 727 mmHg 57%
18:00 +29°C° 0 mm 2 m/S 727 mmHg 64%
19:00 +27°C° 0 mm 3 m/S 727 mmHg 71%
20:00 +26°C° 0 mm 3 m/S 727 mmHg 78%
21:00 +23°C° 0.3 mm 4 m/S 727 mmHg 79%
22:00 +22°C° 0.3 mm 5 m/S 727 mmHg 80%
23:00 +21°C° 0.3 mm 6 m/S 728 mmHg 82%
Mehr zeigen

Wir brauchen deine Erlaubnis

Meteoprog und unser Service Anbieter werden persönliche Daten aufbewahren, so wie Cookies, Geräte Bezeichnung oder ähnliche Technologien von deinem Gerät und Prozess, so wie Persönliche Daten Inhalte und Werbungen, genauso wie social Media und den Verkehr zu analysieren.

  • Aufbewahrung und/oder Zugang zu deiner Geräte Informationen.

    Cookies, Geräte Bezeichnung oder andere Informationen, können aufbewahrt oder Zugang zu deinem Gerät erhalten, für den Grund, der oben angegeben wird.

  • Personalisierte Werbung und Inhalte, Messungen, Einblick in das Publikum und Produkt Entwicklung.

    Werbungen und Inhalte können personalisiert werden, basierend auf ein Profil. Mehr Daten können besser personalisierte Werbungen und Inhalte hinzufügen. Werbung und Inhalte können gezeigt und gemessen werden. Einblicke über das Publikum, welche die Werbung gesehen haben und den Inhalt, können abgeleitet werden. So wie Daten können genutzt werden, um es zu verbessern oder die Benutzer Erfahrung zu verbessern das System und die Software.

Wenn du “Ich stimme zu” klickst, erlaubst du uns, die Cookies zu benutzen die Geräte Bezeichnung, den Web oder ähnliche Technologien zu benutzen. Deine Settings, können in deinem Gerät bei deinem Browser geändert werden.

Für den bestimmten Zweck, berechtigten Interessen beruhen darauf, mehr als auf den Inhalt. Du kannst mehr darüber in unseren Privaten und Cookie Politik lesen.